User: anonymous   Login
Location: Unspecified
(0.0000°N, 0.0000°E)
Time: 06:38:46
(UTC+00:00)
Language:

ATHENOXAT 1 - Orbit

View from above orbital plane
View from above orbital plane
View from above satellite
View from above satellite

Ground track
Ground track

The orbit data is extracted from the following two-line orbital elements,

1 41168U 15077C   19082.78131494  .00001836  00000-0  62405-4 0  9996
2 41168  14.9877 132.9103 0011668 325.0834  34.8721 15.13421367180797
Epoch (UTC): 23 March 2019 18:45:05
Eccentricity: 0.0011668
inclination: 14.9877°
perigee height: 518 km
apogee height: 534 km
right ascension of ascending node: 132.9103°
argument of perigee: 325.0834°
revolutions per day: 15.13421367
mean anomaly at epoch: 34.8721°
orbit number at epoch: 18079

The dashed part of the orbit path shows where the satellite is in the earth's shadow,  

DLR